Location: Paddlesworth
(51.1000°N, 1.1333°E)
Time: 12:56:51
(UTC+00:00)

Cosmos 1975 - Pass Details

Date: 11 May 2021
Orbit: 541 x 561 km, 82.5° (Epoch: 19 June)

Event Time Altitude Azimuth Distance (km) Brightness Sun altitude
Rises 22:52:48 0° 350° (N) 2,718 8.0 -19.6°
Reaches altitude 10° 22:54:59 10° 351° (N) 1,819 6.7 -19.7°
Maximum altitude 22:58:59 84° 78° (ENE) 552 2.7 -19.8°
Enters shadow 22:59:42 58° 160° (SSE) 634 2.7 -19.8°
